Weather History for Haines, AK

Change the Weather History Date:

Monday, October 8, 2012

  Actual Average Record
Temperature  
Mean Temperature 46 °F -  
Max Temperature 48 °F 47 °F 54 °F (1974)
Min Temperature 45 °F 38 °F 32 °F (2006)
Degree Days  
Heating Degree Days 18    
Moisture  
Dew Point 44 °F    
Average Humidity 92    
Maximum Humidity 100    
Minimum Humidity 83    
Precipitation  
Precipitation 0.00 in - - ()
Sea Level Pressure  
Sea Level Pressure 30.17 in    
Wind  
Wind Speed 1 mph (NNW)    
Max Wind Speed 7 mph    
Max Gust Speed -    
Visibility 10 miles    
Events      
Averages and records for this station are not official NWS values.
T = Trace of Precipitation, MM = Missing Value Source: NWS Daily Summary

Daily Weather History Graph

Daily Weather History Graph

Search for Another Location

Airport:

Trip Planner

Search our weather history database for the weather conditions in past years. The results will help you decide how hot, cold, wet, or windy it might be!

Date:

Astronomy

Oct. 08, 2012 Rise Set
Actual Time 7:24 AM AKDT 6:12 PM AKDT
Civil Twilight 6:44 AM AKDT 6:53 PM AKDT
Nautical Twilight 5:56 AM AKDT 7:40 PM AKDT
Astronomical Twilight 5:08 AM AKDT 8:28 PM AKDT
Moon 11:48 PM AKDT (10/8) 3:32 PM AKDT (10/8)
Length of Visible Light 12h 09m
Length of Day
10h 47m
Last Quarter, 45% of the Moon is Illuminated
Oct 8
Last Quarter
Oct 15
New
Oct 21
First Quarter
Oct 29
Full
Nov 6
Last Quarter

Hourly Weather History & Observations

Time (AKDT) Temp. Windchill Dew Point Humidity Pressure Visibility Wind Dir Wind Speed Gust Speed Precip Events Conditions
12:54 AM 46.9 °F - 45.0 °F 93% 30.22 in 10.0 mi Calm Calm - N/A   Overcast
1:54 AM 46.0 °F - 45.0 °F 96% 30.22 in 10.0 mi Calm Calm - N/A   Overcast
2:54 AM 46.0 °F - 44.1 °F 93% 30.21 in 10.0 mi Calm Calm - N/A   Overcast
3:54 AM 46.0 °F - 44.1 °F 93% 30.21 in 10.0 mi Calm Calm - N/A   Overcast
4:54 AM 46.0 °F - 44.1 °F 93% 30.20 in 10.0 mi Calm Calm - N/A   Overcast
5:08 AM 46.4 °F - 44.6 °F 93% 30.19 in 10.0 mi Calm Calm - N/A   Overcast
5:54 AM 46.0 °F - 44.1 °F 93% 30.20 in 10.0 mi Calm Calm - N/A   Overcast
6:07 AM 46.4 °F 44.3 °F 44.6 °F 93% 30.19 in 10.0 mi WNW 4.6 mph - N/A   Overcast
6:24 AM 46.4 °F - 44.6 °F 93% 30.18 in 10.0 mi Calm Calm - N/A   Overcast
6:45 AM 46.4 °F - 44.6 °F 93% 30.19 in 10.0 mi Calm Calm - N/A   Overcast
6:54 AM 45.0 °F - 44.1 °F 97% 30.20 in 10.0 mi Calm Calm - N/A   Overcast
7:54 AM 46.0 °F - 45.0 °F 96% 30.20 in 10.0 mi Calm Calm - N/A   Overcast
8:54 AM 46.0 °F - 45.0 °F 96% 30.20 in 10.0 mi Calm Calm - N/A   Overcast
9:21 AM 46.4 °F - 44.6 °F 93% 30.19 in 5.0 mi Calm Calm - N/A   Overcast
9:54 AM 46.9 °F - 45.0 °F 93% 30.19 in 8.0 mi Calm Calm - N/A   Overcast
10:03 AM 46.4 °F - 44.6 °F 93% 30.18 in 10.0 mi Calm Calm - N/A   Overcast
10:17 AM 46.4 °F - 46.4 °F 100% 30.18 in 9.0 mi Calm Calm - N/A   Overcast
10:54 AM 46.9 °F - 45.0 °F 93% 30.19 in 10.0 mi Calm Calm - N/A   Overcast
11:13 AM 46.4 °F - 44.6 °F 93% 30.18 in 9.0 mi Calm Calm - N/A   Overcast
11:21 AM 46.4 °F - 44.6 °F 93% 30.18 in 10.0 mi Calm Calm - N/A   Overcast
11:54 AM 46.9 °F - 45.0 °F 93% 30.17 in 10.0 mi SSE 4.6 mph - N/A   Overcast
12:54 PM 48.0 °F - 45.0 °F 89% 30.17 in 10.0 mi Calm Calm - N/A   Overcast
1:54 PM 48.9 °F - 44.1 °F 83% 30.14 in 10.0 mi Calm Calm - N/A   Overcast
2:54 PM 48.0 °F - 44.1 °F 86% 30.13 in 10.0 mi Calm Calm - N/A   Overcast
3:54 PM 48.0 °F - 44.1 °F 86% 30.13 in 10.0 mi Calm Calm - N/A   Overcast
4:54 PM 46.9 °F - 43.0 °F 86% 30.11 in 10.0 mi ESE 4.6 mph - N/A   Overcast
5:54 PM 46.9 °F - 43.0 °F 86% 30.12 in 10.0 mi ESE 4.6 mph - N/A   Overcast
6:54 PM 46.0 °F 44.8 °F 43.0 °F 89% 30.12 in 10.0 mi East 3.5 mph - N/A   Overcast
7:54 PM 46.0 °F 43.9 °F 43.0 °F 89% 30.12 in 10.0 mi ESE 4.6 mph - N/A   Overcast
8:54 PM 46.0 °F - 43.0 °F 89% 30.12 in 10.0 mi Calm Calm - N/A   Overcast
9:54 PM 46.0 °F 43.1 °F 44.1 °F 93% 30.13 in 10.0 mi NW 5.8 mph - N/A   Overcast
10:16 PM 46.4 °F 43.5 °F 44.6 °F 93% 30.12 in 10.0 mi WNW 5.8 mph - N/A   Overcast
10:54 PM 46.0 °F 43.1 °F 44.1 °F 93% 30.13 in 10.0 mi WNW 5.8 mph - N/A   Overcast
11:54 PM 45.0 °F 41.2 °F 44.1 °F 97% 30.12 in 10.0 mi WNW 6.9 mph - N/A   Overcast